[TLELIST] Archives

 

[list_settings.list_name] Current TLEs

June 29th 2012 PST

HST 1 20580U 90037B 12181.08004332 .00000871 00000-0 51453-4 0 266 2 20580 028.4704 065.7094 0003261 181.2349 178.8559 15.02579233 16527 ISS (ZARYA) 1 25544U 98067A 12181.28296418 .00009035 00000-0 13482-3 0 8327 2 25544 051.6401 061.9233 0008293 100.3363 003.0874 15.55847552779890 CXO 1 25867U 99040B 12182.16444118 -.00001218 00000-0 00000+0 0 7588 2 25867 072.6383 003.7032 8751775 278.1711 359.9745 00.37803593 9202 ____________________________________________________________________ These 2-Line ...Continue Reading

[list_settings.list_name] Current TLEs

June 28th 2012 PST

HST 1 20580U 90037B 12179.15382168 .00000666 00000-0 36404-4 0 257 2 20580 028.4684 078.3233 0003142 151.0542 209.0221 15.02575545 16230 ISS (ZARYA) 1 25544U 98067A 12180.19748219 .00008648 00000-0 12946-3 0 8274 2 25544 051.6403 067.3485 0008397 097.2828 042.3020 15.55825547779727 CXO 1 25867U 99040B 12182.16444118 -.00001218 00000-0 00000+0 0 7588 2 25867 072.6383 003.7032 8751775 278.1711 359.9745 00.37803593 9202 ____________________________________________________________________ These 2-Line ...Continue Reading

[list_settings.list_name] Current TLEs

June 27th 2012 PST

HST 1 20580U 90037B 12179.15382168 .00000666 00000-0 36404-4 0 257 2 20580 028.4684 078.3233 0003142 151.0542 209.0221 15.02575545 16230 ISS (ZARYA) 1 25544U 98067A 12179.17355649 .00007580 00000-0 11444-3 0 8222 2 25544 051.6404 072.4664 0008458 093.6861 067.1417 15.55803504779565 CXO 1 25867U 99040B 12179.52168326 -.00001046 +00000-0 +00000-0 0 00019 2 25867 072.6127 003.9169 8749335 278.1547 000.3045 00.37804768014725 ____________________________________________________________________ These 2-Line ...Continue Reading

[list_settings.list_name] Current TLEs

June 26th 2012 PST

HST 1 20580U 90037B 12178.15749903 .00000666 00000-0 36404-4 0 249 2 20580 028.4684 084.8418 0003142 140.4359 219.6459 15.02574552 16085 ISS (ZARYA) 1 25544U 98067A 12178.26198113 .00006590 00000-0 10051-3 0 8180 2 25544 051.6400 077.0222 0008321 091.0975 000.7170 15.55784544779425 CXO 1 25867U 99040B 12179.52002140 -.00001046 00000-0 00000+0 0 7577 2 25867 072.6126 003.9170 8749342 278.1546 000.0781 00.37804258 9196 ____________________________________________________________________ These 2-Line ...Continue Reading

[list_settings.list_name] Current TLEs

June 25th 2012 PST

HST 1 20580U 90037B 12177.16117564 .00000666 00000-0 36404-4 0 230 2 20580 028.4684 091.3603 0003143 129.8177 230.2692 15.02573559 15931 ISS (ZARYA) 1 25544U 98067A 12177.29921417 .00006106 00000-0 93692-4 0 8112 2 25544 051.6402 081.8340 0008359 087.9111 008.0525 15.55768968779278 CXO 1 25867U 99040B 12179.52002140 -.00001046 00000-0 00000+0 0 7577 2 25867 072.6126 003.9170 8749342 278.1546 000.0781 00.37804258 9196 ____________________________________________________________________ These 2-Line ...Continue Reading

[list_settings.list_name] Current TLEs

June 24th 2012 PST

HST 1 20580U 90037B 12176.16484989 .00000828 00000-0 48269-4 0 228 2 20580 028.4685 097.8760 0003096 114.5810 245.5011 15.02572861 15781 ISS (ZARYA) 1 25544U 98067A 12176.21511514 .00006283 00000-0 96247-4 0 8054 2 25544 051.6400 087.2531 0008410 084.2034 055.9696 15.55755301779109 CXO 1 25867U 99040B 12176.87471417 -.00000854 +00000-0 +00000-0 0 00018 2 25867 072.5872 004.0951 8747243 278.1705 359.9585 00.37800247014713 ____________________________________________________________________ These 2-Line ...Continue Reading

[list_settings.list_name] Current TLEs

June 23rd 2012 PST

HST 1 20580U 90037B 12175.03567946 .00001062 00000-0 65470-4 0 211 2 20580 028.4677 105.2595 0003258 103.4831 256.5973 15.02572162 15617 ISS (ZARYA) 1 25544U 98067A 12175.18649277 .00005708 00000-0 88150-4 0 7994 2 25544 051.6395 092.3941 0008367 080.3181 055.0275 15.55739812778949 CXO 1 25867U 99040B 12176.87588293 -.00000854 00000-0 00000+0 0 7565 2 25867 072.5872 004.0950 8747244 278.1707 000.1176 00.37800327 9180 ____________________________________________________________________ These 2-Line ...Continue Reading

[list_settings.list_name] Current TLEs

June 22nd 2012 PST

HST 1 20580U 90037B 12173.90651463 .00001229 00000-0 77732-4 0 201 2 20580 028.4670 112.6569 0003150 114.8918 245.2198 15.02570551 15441 ISS (ZARYA) 1 25544U 98067A 12174.41031488 .00005113 00000-0 79731-4 0 7948 2 25544 051.6396 096.2741 0008318 077.7958 027.5647 15.55729237778823 CXO 1 25867U 99040B 12174.22969238 -.00000889 00000-0 00000+0 0 7551 2 25867 072.5560 004.2834 8748595 278.1880 359.8224 00.37799663 9176 ____________________________________________________________________ These 2-Line ...Continue Reading

[list_settings.list_name] Current TLEs

June 21st 2012 PST

HST 1 20580U 90037B 12170.18688351 .00001254 00000-0 79607-4 0 193 2 20580 028.4674 137.0014 0003232 074.1274 285.9619 15.02562015 14887 ISS (ZARYA) 1 25544U 98067A 12173.38132065 .00029126 00000-0 41974-3 0 7875 2 25544 051.6380 101.4174 0008496 075.2440 023.3005 15.55730692778662 CXO 1 25867U 99040B 12174.22969238 -.00000889 00000-0 00000+0 0 7551 2 25867 072.5560 004.2834 8748595 278.1880 359.8224 00.37799663 9176 ____________________________________________________________________ These 2-Line ...Continue Reading

[list_settings.list_name] Current TLEs

June 20th 2012 PST

HST 1 20580U 90037B 12170.18688351 .00001254 00000-0 79607-4 0 193 2 20580 028.4674 137.0014 0003232 074.1274 285.9619 15.02562015 14887 ISS (ZARYA) 1 25544U 98067A 12172.35218985 .00013284 00000-0 18993-3 0 7814 2 25544 051.6391 106.5553 0010725 084.9309 005.4206 15.56519458778503 CXO 1 25867U 99040B 12174.22969238 -.00000889 00000-0 00000+0 0 7551 2 25867 072.5560 004.2834 8748595 278.1880 359.8224 00.37799663 9176 ____________________________________________________________________ These 2-Line ...Continue Reading
  • This mailing list is a public mailing list - anyone may join or leave, at any time.
  • This mailing list is announce-only.

International Space Station (ISS) / Hubble Space Telescope (HST) / Chandra X-Ray Observatory Orbital Data via EMAIL

Privacy Policy:

Private list